EW4696 Weather Reports


Display with metric or nautical units.
time (UTC)temp
F
wind
direction
speed
MPH
gust
MPH
rain 1hr
in
rain 24hr
in
rain mn
in
humidity
%
barometer
mb
20260902005504 93 82 1.0 5.0 0.00 0.00 0.00 47 1013.5
20260902005005 93 82 1.0 5.0 0.00 0.00 0.00 47 1013.5
20260902004004 94 91 1.0 5.0 0.00 0.00 0.00 47 1013.5
20260902003504 94 113 1.0 6.0 0.00 0.00 0.00 46 1013.6
20260902003004 94 107 1.0 6.0 0.00 0.00 0.00 46 1013.6
20260902002005 95 17 1.0 2.0 0.00 0.00 0.00 45 1013.6
20260902001504 95 17 1.0 3.0 0.00 0.00 0.00 44 1013.6
20260902001005 95 37 1.0 5.0 0.00 0.00 0.00 44 1013.6
20260902000504 95 43 1.0 5.0 0.00 0.00 0.00 44 1013.6
20260902000004 96 64 1.0 5.0 0.00 0.00 0.00 44 1013.6
20260901235505 96 87 2.0 5.0 0.00 0.00 0.00 44 1013.5
20260901235004 96 90 2.0 7.0 0.00 0.00 0.00 44 1013.6
20260901234504 96 77 2.0 7.0 0.00 0.00 0.00 44 1013.5
20260901234004 96 58 2.0 7.0 0.00 0.00 0.00 44 1013.5
20260901233005 97 83 1.0 6.0 0.00 0.00 0.00 44 1013.5
20260901232004 97 80 1.0 6.0 0.00 0.00 0.00 43 1013.5
20260901231505 97 78 1.0 6.0 0.00 0.00 0.00 43 1013.5
20260901231004 97 77 1.0 5.0 0.00 0.00 0.00 43 1013.5
20260901230505 97 84 1.0 6.0 0.00 0.00 0.00 43 1013.4
20260901230005 98 87 1.0 7.0 0.00 0.00 0.00 43 1013.5
20260901225504 98 83 1.0 7.0 0.00 0.00 0.00 43 1013.5
20260901225005 98 86 2.0 5.0 0.00 0.00 0.00 43 1013.5
20260901224504 98 93 2.0 5.0 0.00 0.00 0.00 43 1013.5
20260901224005 98 94 2.0 8.0 0.00 0.00 0.00 44 1013.5
20260901223504 98 92 1.0 8.0 0.00 0.00 0.00 43 1013.6
20260901223005 98 92 1.0 5.0 0.00 0.00 0.00 42 1013.5
20260901222505 99 91 1.0 5.0 0.00 0.00 0.00 41 1013.4
20260901222004 99 93 2.0 8.0 0.00 0.00 0.00 42 1013.5
20260901221005 99 94 1.0 5.0 0.00 0.00 0.00 44 1013.6
20260901220004 97 94 1.0 5.0 0.00 0.00 0.00 44 1013.6
20260901215004 97 92 2.0 5.0 0.00 0.00 0.00 43 1013.6
20260901214004 99 89 2.0 5.0 0.00 0.00 0.00 42 1013.7
20260901213504 99 87 1.0 5.0 0.00 0.00 0.00 43 1013.6
20260901213005 99 86 1.0 6.0 0.00 0.00 0.00 43 1013.6
20260901212504 98 86 1.0 6.0 0.00 0.00 0.00 43 1013.7
20260901212005 98 84 1.0 5.0 0.00 0.00 0.00 45 1013.8
20260901211504 97 84 1.0 5.0 0.00 0.00 0.00 45 1013.9
20260901211004 97 84 1.0 2.0 0.00 0.00 0.00 44 1014.0
20260901210505 98 89 1.0 5.0 0.00 0.00 0.00 43 1014.1
20260901210004 98 87 2.0 5.0 0.00 0.00 0.00 44 1014.2
20260901205004 98 73 1.0 4.0 0.00 0.00 0.00 45 1014.3
20260901204504 97 73 1.0 4.0 0.00 0.00 0.00 46 1014.3
20260901204004 97 71 1.0 4.0 0.00 0.00 0.00 45 1014.4
20260901203504 97 64 2.0 5.0 0.00 0.00 0.00 45 1014.5
20260901202504 98 57 1.0 3.0 0.00 0.00 0.00 43 1014.6
20260901202005 98 75 1.0 5.0 0.00 0.00 0.00 45 1014.7
20260901201504 97 83 2.0 5.0 0.00 0.00 0.00 47 1014.8
20260901201004 96 82 1.0 5.0 0.00 0.00 0.00 46 1014.8
20260901200504 96 82 1.0 5.0 0.00 0.00 0.00 47 1014.9
20260901200005 96 82 1.0 5.0 0.00 0.00 0.00 46 1015.0
20260901195504 97 82 2.0 6.0 0.00 0.00 0.00 45 1015.0
20260901195004 98 81 2.0 6.0 0.00 0.00 0.00 45 1015.1
20260901194505 98 81 2.0 5.0 0.00 0.00 0.00 45 1015.1
20260901194004 97 81 2.0 8.0 0.00 0.00 0.00 46 1015.2
20260901193504 96 81 1.0 8.0 0.00 0.00 0.00 48 1015.3
20260901193004 95 0 0.0 3.0 0.00 0.00 0.00 47 1015.3
20260901192504 95 82 1.0 5.0 0.00 0.00 0.00 47 1015.4
20260901192004 96 82 1.0 5.0 0.00 0.00 0.00 46 1015.4
20260901191504 96 83 1.0 5.0 0.00 0.00 0.00 45 1015.5
20260901191004 97 85 1.0 5.0 0.00 0.00 0.00 46 1015.6
20260901190505 97 87 1.0 5.0 0.00 0.00 0.00 45 1015.7
20260901190004 97 88 1.0 5.0 0.00 0.00 0.00 47 1015.7
20260901185504 97 88 2.0 5.0 0.00 0.00 0.00 47 1015.8
20260901185004 96 90 2.0 6.0 0.00 0.00 0.00 49 1015.9
20260901184504 96 100 2.0 6.0 0.00 0.00 0.00 47 1016.0
20260901184005 96 110 2.0 4.0 0.00 0.00 0.00 48 1016.1
20260901183504 95 103 2.0 5.0 0.00 0.00 0.00 50 1016.2
20260901183004 95 96 2.0 7.0 0.00 0.00 0.00 50 1016.3
20260901182505 95 101 2.0 7.0 0.00 0.00 0.00 52 1016.4
20260901182004 94 105 1.0 8.0 0.00 0.00 0.00 50 1016.4
20260901181005 94 62 1.0 4.0 0.00 0.00 0.00 51 1016.7
20260901180504 95 62 1.0 4.0 0.00 0.00 0.00 51 1016.7
20260901175004 95 67 2.0 7.0 0.00 0.00 0.00 51 1016.9
20260901174504 95 76 1.0 6.0 0.00 0.00 0.00 51 1016.9
20260901174006 95 81 1.0 6.0 0.00 0.00 0.00 51 1017.0
20260901173504 95 80 1.0 5.0 0.00 0.00 0.00 51 1017.1
20260901173005 95 80 1.0 5.0 0.00 0.00 0.00 50 1017.2
20260901172504 94 78 1.0 5.0 0.00 0.00 0.00 52 1017.2
20260901172004 94 78 2.0 5.0 0.00 0.00 0.00 51 1017.3
20260901171504 94 79 2.0 5.0 0.00 0.00 0.00 51 1017.4
20260901171004 94 79 1.0 5.0 0.00 0.00 0.00 54 1017.4
20260901170504 94 78 1.0 5.0 0.00 0.00 0.00 53 1017.4
20260901170004 94 77 1.0 3.0 0.00 0.00 0.00 55 1017.5
20260901165504 93 76 1.0 4.0 0.00 0.00 0.00 55 1017.5
20260901165005 93 76 1.0 4.0 0.00 0.00 0.00 54 1017.5
20260901164504 93 90 1.0 5.0 0.00 0.00 0.00 56 1017.6
20260901164004 93 110 1.0 5.0 0.00 0.00 0.00 55 1017.6
20260901163504 93 130 1.0 3.0 0.00 0.00 0.00 56 1017.6
20260901162504 92 131 1.0 3.0 0.00 0.00 0.00 57 1017.7
20260901162004 92 132 1.0 2.0 0.00 0.00 0.00 59 1017.9
20260901161504 92 131 1.0 3.0 0.00 0.00 0.00 59 1017.9
20260901161004 91 131 1.0 3.0 0.00 0.00 0.00 59 1017.9
20260901160504 91 139 1.0 4.0 0.00 0.00 0.00 61 1017.9
20260901160004 91 169 1.0 4.0 0.00 0.00 0.00 60 1017.9
20260901155504 91 192 1.0 2.0 0.00 0.00 0.00 62 1017.9
20260901154504 90 0 0.0 2.0 0.00 0.00 0.00 62 1017.9
20260901153504 90 0 0.0 2.0 0.00 0.00 0.00 65 1017.8
20260901153005 89 193 1.0 4.0 0.00 0.00 0.00 65 1017.8
20260901152004 88 0 0.0 2.0 0.00 0.00 0.00 66 1017.8
20260901151505 88 196 1.0 4.0 0.00 0.00 0.00 66 1017.8
20260901151004 88 197 1.0 4.0 0.00 0.00 0.00 69 1017.9
20260901150504 87 0 0.0 2.0 0.00 0.00 0.00 71 1018.0
20260901150005 87 0 0.0 2.0 0.00 0.00 0.00 73 1018.0
20260901145504 87 198 1.0 2.0 0.00 0.00 0.00 73 1017.9
20260901144004 86 0 0.0 2.0 0.00 0.00 0.00 76 1018.0
20260901143504 86 0 0.0 2.0 0.00 0.00 0.00 76 1018.1
20260901143004 85 0 0.0 3.0 0.00 0.00 0.00 77 1018.1
20260901142504 85 0 0.0 3.0 0.00 0.00 0.00 77 1018.2
20260901142004 84 0 0.0 3.0 0.00 0.00 0.00 78 1018.2
20260901141504 84 0 0.0 4.0 0.00 0.00 0.00 79 1018.2
20260901141005 83 0 0.0 4.0 0.00 0.00 0.00 81 1018.3
20260901140504 83 0 0.0 3.0 0.00 0.00 0.00 81 1018.3
20260901140004 83 0 0.0 3.0 0.00 0.00 0.00 82 1018.3
20260901135504 82 0 0.0 2.0 0.00 0.00 0.00 83 1018.3
20260901135004 82 0 0.0 1.0 0.00 0.00 0.00 84 1018.3
20260901133504 80 0 0.0 0.0 0.00 0.00 0.00 87 1018.1
20260901133004 79 0 0.0 0.0 0.00 0.00 0.00 88 1018.0
20260901132504 79 0 0.0 0.0 0.00 0.00 0.00 88 1017.8
20260901132004 78 0 0.0 0.0 0.00 0.00 0.00 89 1017.9
20260901131505 78 0 0.0 0.0 0.00 0.00 0.00 89 1017.8
20260901131004 78 0 0.0 0.0 0.00 0.00 0.00 89 1017.7
20260901130005 77 0 0.0 0.0 0.00 0.00 0.00 89 1017.7
20260901125504 77 0 0.0 0.0 0.00 0.00 0.00 89 1017.5
20260901125004 77 0 0.0 0.0 0.00 0.00 0.00 89 1017.5
20260901124505 77 0 0.0 0.0 0.00 0.00 0.00 90 1017.4
20260901124005 76 0 0.0 0.0 0.00 0.00 0.00 89 1017.3
20260901123504 76 0 0.0 0.0 0.00 0.00 0.00 89 1017.4
20260901123004 76 0 0.0 0.0 0.00 0.00 0.00 89 1017.4
20260901122504 76 0 0.0 0.0 0.00 0.00 0.00 89 1017.4
20260901121504 77 0 0.0 0.0 0.00 0.00 0.00 89 1017.0
20260901121004 77 0 0.0 0.0 0.00 0.00 0.00 89 1017.0
20260901120504 77 0 0.0 0.0 0.00 0.00 0.00 89 1017.1
20260901120005 77 0 0.0 0.0 0.00 0.00 0.00 88 1017.1
20260901115504 77 0 0.0 0.0 0.00 0.00 0.00 88 1017.2
20260901115004 77 0 0.0 0.0 0.00 0.00 0.00 88 1017.2
20260901114504 77 0 0.0 0.0 0.00 0.00 0.00 88 1017.2
20260901114005 77 0 0.0 0.0 0.00 0.00 0.00 88 1017.2
20260901113504 78 0 0.0 3.0 0.00 0.00 0.00 88 1017.1
20260901113004 78 0 0.0 3.0 0.00 0.00 0.00 88 1017.1
20260901112505 78 0 0.0 1.0 0.00 0.00 0.00 88 1017.2
20260901112004 78 0 0.0 1.0 0.00 0.00 0.00 88 1017.1
20260901111004 78 0 0.0 2.0 0.00 0.00 0.00 88 1017.0
20260901110505 78 0 0.0 1.0 0.00 0.00 0.00 88 1017.0
20260901105504 78 0 0.0 2.0 0.00 0.00 0.00 87 1017.0
20260901105004 78 0 0.0 2.0 0.00 0.00 0.00 87 1016.9
20260901104505 78 0 0.0 2.0 0.00 0.00 0.00 87 1017.0
20260901104004 78 0 0.0 1.0 0.00 0.00 0.00 87 1016.9
20260901103004 78 0 0.0 2.0 0.00 0.00 0.00 87 1016.8
20260901102504 78 0 0.0 3.0 0.00 0.00 0.00 87 1016.8
20260901102004 78 0 0.0 3.0 0.00 0.00 0.00 87 1016.8
20260901101504 78 0 0.0 2.0 0.00 0.00 0.00 87 1016.7
20260901101004 78 0 0.0 4.0 0.00 0.00 0.00 86 1016.9
20260901100504 78 201 1.0 4.0 0.00 0.00 0.00 86 1016.8
20260901100004 78 0 0.0 4.0 0.00 0.00 0.00 86 1016.8
20260901095504 79 211 1.0 3.0 0.00 0.00 0.00 86 1016.7
20260901095005 79 0 0.0 4.0 0.00 0.00 0.00 86 1016.9
20260901094504 79 0 0.0 4.0 0.00 0.00 0.00 86 1016.9
20260901094004 79 0 0.0 5.0 0.00 0.00 0.00 86 1016.9
20260901093504 79 0 0.0 5.0 0.00 0.00 0.00 86 1016.9
20260901093004 79 0 0.0 2.0 0.00 0.00 0.00 85 1017.0
20260901092004 79 0 0.0 2.0 0.00 0.00 0.00 85 1017.1
20260901091004 80 0 0.0 3.0 0.00 0.00 0.00 84 1017.1
20260901090504 80 0 0.0 3.0 0.00 0.00 0.00 84 1017.0
20260901090004 80 0 0.0 3.0 0.00 0.00 0.00 84 1016.9
20260901085004 80 216 1.0 5.0 0.00 0.00 0.00 83 1016.9
20260901084505 80 0 0.0 2.0 0.00 0.00 0.00 83 1016.8
20260901084004 80 0 0.0 0.0 0.00 0.00 0.00 83 1016.8
20260901083004 80 0 0.0 3.0 0.00 0.00 0.00 82 1016.8
20260901082504 80 0 0.0 3.0 0.00 0.00 0.00 82 1016.8
20260901082004 80 218 1.0 5.0 0.00 0.00 0.00 81 1016.8
20260901081004 81 218 1.0 4.0 0.00 0.00 0.00 80 1016.8
20260901080505 81 0 0.0 3.0 0.00 0.00 0.00 80 1016.9
20260901080004 81 0 0.0 4.0 0.00 0.00 0.00 79 1016.9
20260901075504 81 0 0.0 4.0 0.00 0.00 0.00 79 1016.9
20260901074504 81 0 0.0 3.0 0.00 0.00 0.00 79 1017.0
20260901074004 81 0 0.0 2.0 0.00 0.00 0.00 78 1017.0
20260901073504 81 0 0.0 2.0 0.00 0.00 0.00 78 1017.0
20260901073004 81 0 0.0 2.0 0.00 0.00 0.00 78 1016.8
20260901072504 82 0 0.0 3.0 0.00 0.00 0.00 77 1016.9
20260901072004 82 0 0.0 3.0 0.00 0.00 0.00 77 1017.0
20260901071004 82 216 1.0 4.0 0.00 0.00 0.00 76 1016.9
20260901070504 82 215 1.0 5.0 0.00 0.00 0.00 75 1016.9
20260901070004 82 216 1.0 5.0 0.00 0.00 0.00 74 1016.9
20260901065504 82 0 0.0 4.0 0.00 0.00 0.00 74 1016.9
20260901065004 82 0 0.0 3.0 0.00 0.00 0.00 73 1016.8
20260901064504 82 0 0.0 5.0 0.00 0.00 0.00 73 1016.8
20260901064004 82 0 0.0 5.0 0.00 0.00 0.00 73 1016.7
20260901063504 82 0 0.0 3.0 0.00 0.00 0.00 74 1016.8
20260901063004 82 0 0.0 3.0 0.00 0.00 0.00 74 1016.8
20260901062004 82 0 0.0 2.0 0.00 0.00 0.00 73 1016.7
20260901061504 83 0 0.0 2.0 0.00 0.00 0.00 73 1016.6
20260901061004 83 0 0.0 1.0 0.00 0.00 0.00 73 1016.8
20260901060504 83 0 0.0 3.0 0.00 0.00 0.00 73 1016.7
20260901055504 83 241 1.0 4.0 0.00 0.00 0.00 73 1016.6
20260901055004 84 0 0.0 4.0 0.00 0.00 0.00 72 1016.6
20260901054504 84 0 0.0 4.0 0.00 0.00 0.00 72 1016.4
20260901054004 84 0 0.0 4.0 0.00 0.00 0.00 71 1016.4
20260901053504 84 0 0.0 4.0 0.00 0.00 0.00 71 1016.4
20260901053004 84 232 1.0 5.0 0.00 0.00 0.00 70 1016.4
20260901052504 84 202 1.0 5.0 0.00 0.00 0.00 70 1016.5
20260901052004 84 0 0.0 4.0 0.00 0.00 0.00 69 1016.4
20260901051504 84 0 0.0 2.0 0.00 0.00 0.00 68 1016.3
20260901050504 84 125 1.0 4.0 0.00 0.00 0.00 67 1016.4
20260901050005 84 128 1.0 4.0 0.00 0.00 0.00 67 1016.3
20260901045504 84 126 1.0 4.0 0.00 0.00 0.00 67 1016.3
20260901045005 84 0 0.0 3.0 0.00 0.00 0.00 66 1016.2
20260901044506 84 0 0.0 3.0 0.00 0.00 0.00 66 1016.2
20260901044004 84 0 0.0 3.0 0.00 0.00 0.00 66 1016.2
20260901043504 85 0 0.0 2.0 0.00 0.00 0.00 65 1016.3
20260901043005 85 0 0.0 2.0 0.00 0.00 0.00 65 1016.3
20260901042504 85 0 0.0 3.0 0.00 0.00 0.00 65 1016.1
20260901042004 85 0 0.0 3.0 0.00 0.00 0.00 64 1016.0
20260901041504 85 0 0.0 5.0 0.00 0.00 0.00 64 1016.1
20260901041004 86 0 0.0 5.0 0.00 0.00 0.00 64 1016.1
20260901040504 86 111 1.0 7.0 0.00 0.00 0.00 63 1016.1
20260901040004 86 127 1.0 7.0 0.00 0.00 0.00 63 1016.1
20260901035504 86 133 1.0 3.0 0.00 0.00 0.00 63 1016.1
20260901035004 86 132 1.0 3.0 0.00 0.00 0.00 62 1016.1
20260901033003 87 82 1.0 5.0 0.00 0.00 0.00 59 1016.0
20260901032504 87 76 1.0 5.0 0.00 0.00 0.00 58 1015.9
20260901032004 87 110 1.0 8.0 0.00 0.00 0.00 57 1015.8
20260901031504 88 107 1.0 8.0 0.00 0.00 0.00 57 1015.7
20260901031004 88 91 1.0 7.0 0.00 0.00 0.00 56 1015.8
20260901030504 88 98 1.0 8.0 0.00 0.00 0.00 55 1015.6
20260901025004 88 0 0.0 3.0 0.00 0.00 0.00 52 1015.4
20260901024504 88 0 0.0 2.0 0.00 0.00 0.00 51 1015.3
20260901024004 88 0 0.0 2.0 0.00 0.00 0.00 50 1015.2
20260901023004 89 0 0.0 2.0 0.00 0.00 0.00 49 1015.0
20260901022504 89 0 0.0 3.0 0.00 0.00 0.00 48 1015.0
20260901022004 89 0 0.0 3.0 0.00 0.00 0.00 48 1014.9
20260901021504 89 108 1.0 2.0 0.00 0.00 0.00 47 1014.9
20260901021004 89 108 1.0 2.0 0.00 0.00 0.00 47 1014.8
20260901020504 90 0 0.0 4.0 0.00 0.00 0.00 47 1014.7
20260901020005 90 0 0.0 4.0 0.00 0.00 0.00 47 1014.6
20260901015004 90 0 0.0 2.0 0.00 0.00 0.00 47 1014.5
20260901013004 91 0 0.0 2.0 0.00 0.00 0.00 46 1014.3
20260901012504 91 0 0.0 2.0 0.00 0.00 0.00 46 1014.3
20260901012004 91 0 0.0 2.0 0.00 0.00 0.00 45 1014.3
20260901011004 92 124 1.0 4.0 0.00 0.00 0.00 44 1014.1
20260901010004 93 125 1.0 3.0 0.00 0.00 0.00 43 1014.1